| time (UTC) | temp F | wind direction | speed knots | gust knots | rain 1hr in | rain 24hr in | rain mn in | humidity % | barometer mb |
| 20260505173309 | 80 | 331 | 7.0 | 8.7 | 0.00 | 0.00 | 0.00 | 35 | 1003.6 |
| 20260505172807 | 79 | 331 | 8.7 | 11.3 | 0.00 | 0.00 | 0.00 | 39 | 1003.9 |
| 20260505172306 | 82 | 331 | 10.4 | 12.2 | 0.00 | 0.00 | 0.00 | 37 | 1004.0 |
| 20260505171758 | 79 | 331 | 5.2 | 7.0 | 0.00 | 0.00 | 0.00 | 39 | 1004.2 |
| 20260505171255 | 80 | 331 | 7.0 | 8.7 | 0.00 | 0.00 | 0.00 | 37 | 1004.0 |
| 20260505170752 | 80 | 331 | 11.3 | 13.0 | 0.00 | 0.00 | 0.00 | 36 | 1004.1 |
| 20260505170249 | 79 | 331 | 3.5 | 6.1 | 0.00 | 0.00 | 0.00 | 40 | 1004.4 |
| 20260505165744 | 80 | 331 | 7.0 | 7.8 | 0.00 | 0.00 | 0.00 | 39 | 1004.2 |
| 20260505165240 | 79 | 331 | 2.6 | 2.6 | 0.00 | 0.00 | 0.00 | 42 | 1004.5 |
| 20260505164736 | 80 | 331 | 0.9 | 1.7 | 0.00 | 0.00 | 0.00 | 42 | 1004.6 |
| 20260505164233 | 78 | 331 | 7.0 | 8.7 | 0.00 | 0.00 | 0.00 | 44 | 1004.6 |
| 20260505163732 | 78 | 331 | 6.1 | 7.0 | 0.00 | 0.00 | 0.00 | 40 | 1004.7 |
| 20260505163230 | 81 | 331 | 1.7 | 4.3 | 0.00 | 0.00 | 0.00 | 40 | 1004.9 |
| 20260505162727 | 78 | 331 | 5.2 | 6.1 | 0.00 | 0.00 | 0.00 | 44 | 1004.7 |
| 20260505162224 | 80 | 331 | 4.3 | 7.8 | 0.00 | 0.00 | 0.00 | 38 | 1004.7 |
| 20260505161720 | 78 | 331 | 0.9 | 1.7 | 0.00 | 0.00 | 0.00 | 41 | 1004.8 |
| 20260505161218 | 78 | 331 | 3.5 | 6.1 | 0.00 | 0.00 | 0.00 | 42 | 1004.9 |
| 20260505160715 | 79 | 331 | 3.5 | 4.3 | 0.00 | 0.00 | 0.00 | 45 | 1004.9 |
| 20260505160213 | 81 | 331 | 4.3 | 6.1 | 0.00 | 0.00 | 0.00 | 44 | 1004.8 |
| 20260505153152 | 77 | 330 | 3.5 | 5.2 | 0.00 | 0.00 | 0.00 | 52 | 1005.1 |
| 20260505152649 | 77 | 330 | 2.6 | 4.3 | 0.00 | 0.00 | 0.00 | 51 | 1005.4 |
| 20260505152145 | 76 | 330 | 4.3 | 7.0 | 0.00 | 0.00 | 0.00 | 54 | 1005.1 |
| 20260505151640 | 78 | 330 | 3.5 | 6.1 | 0.00 | 0.00 | 0.00 | 53 | 1005.2 |
| 20260505151138 | 77 | 330 | 0.9 | 1.7 | 0.00 | 0.00 | 0.00 | 55 | 1005.2 |
| 20260505150634 | 77 | 330 | 2.6 | 2.6 | 0.00 | 0.00 | 0.00 | 56 | 1005.3 |
| 20260505150131 | 75 | 330 | 2.6 | 4.3 | 0.00 | 0.00 | 0.00 | 57 | 1005.4 |
| 20260505140559 | 70 | 330 | 5.2 | 6.1 | 0.00 | 0.00 | 0.00 | 66 | 1005.4 |
| 20260505125013 | 65 | 330 | 3.5 | 4.3 | 0.00 | 0.00 | 0.00 | 75 | 1005.2 |
| 20260505124510 | 64 | 329 | 3.5 | 4.3 | 0.00 | 0.00 | 0.00 | 76 | 1005.0 |
| 20260505124006 | 64 | 330 | 1.7 | 2.6 | 0.00 | 0.00 | 0.00 | 78 | 1005.0 |
| 20260505123503 | 63 | 330 | 1.7 | 1.7 | 0.00 | 0.00 | 0.00 | 79 | 1005.0 |
| 20260505122958 | 62 | 330 | 1.7 | 2.6 | 0.00 | 0.00 | 0.00 | 79 | 1004.8 |
| 20260505122456 | 62 | 330 | 5.2 | 7.0 | 0.00 | 0.00 | 0.00 | 79 | 1004.8 |
| 20260505121953 | 62 | 330 | 6.1 | 7.0 | 0.00 | 0.00 | 0.00 | 80 | 1004.8 |
| 20260505121449 | 61 | 330 | 2.6 | 4.3 | 0.00 | 0.00 | 0.00 | 81 | 1004.6 |
| 20260505120945 | 61 | 330 | 2.6 | 2.6 | 0.00 | 0.00 | 0.00 | 82 | 1004.7 |
| 20260505120442 | 60 | 330 | 1.7 | 2.6 | 0.00 | 0.00 | 0.00 | 83 | 1004.7 |
| 20260505115941 | 59 | 330 | 1.7 | 1.7 | 0.00 | 0.00 | 0.00 | 83 | 1004.7 |
| 20260505115438 | 59 | 330 | 2.6 | 4.3 | 0.00 | 0.00 | 0.00 | 84 | 1004.9 |
| 20260505114936 | 58 | 330 | 1.7 | 1.7 | 0.00 | 0.00 | 0.00 | 85 | 1004.8 |
| 20260505114432 | 58 | 330 | 3.5 | 4.3 | 0.00 | 0.00 | 0.00 | 85 | 1004.6 |
| 20260505113928 | 57 | 330 | 0.9 | 1.7 | 0.00 | 0.00 | 0.00 | 86 | 1004.7 |
| 20260505113425 | 57 | 329 | 0.9 | 1.7 | 0.00 | 0.00 | 0.00 | 87 | 1004.6 |
| 20260505112921 | 56 | 330 | 0.0 | 0.0 | 0.00 | 0.00 | 0.00 | 88 | 1004.6 |
| 20260505112419 | 55 | 330 | 0.0 | 0.0 | 0.00 | 0.00 | 0.00 | 90 | 1004.8 |
| 20260505111914 | 54 | 330 | 0.0 | 0.0 | 0.00 | 0.00 | 0.00 | 91 | 1004.5 |
| 20260505111409 | 54 | 330 | 0.9 | 0.9 | 0.00 | 0.00 | 0.00 | 92 | 1004.6 |
| 20260505110906 | 54 | 330 | 0.9 | 0.9 | 0.00 | 0.00 | 0.00 | 91 | 1004.3 |
| 20260505110403 | 54 | 330 | 0.0 | 0.0 | 0.00 | 0.00 | 0.00 | 92 | 1004.3 |
| 20260505101833 | 54 | 330 | 0.0 | 0.0 | 0.00 | 0.00 | 0.00 | 89 | 1004.1 |
| 20260505101328 | 54 | 330 | 0.9 | 0.9 | 0.00 | 0.00 | 0.00 | 90 | 1003.9 |
| 20260505100824 | 54 | 330 | 0.9 | 1.7 | 0.00 | 0.00 | 0.00 | 90 | 1004.0 |
| 20260505100321 | 54 | 330 | 0.0 | 0.0 | 0.00 | 0.00 | 0.00 | 90 | 1003.7 |
| 20260505095817 | 53 | 330 | 0.0 | 0.0 | 0.00 | 0.00 | 0.00 | 90 | 1004.0 |
| 20260505095315 | 54 | 330 | 0.9 | 0.9 | 0.00 | 0.00 | 0.00 | 90 | 1003.8 |
| 20260505094810 | 54 | 330 | 0.9 | 1.7 | 0.00 | 0.00 | 0.00 | 90 | 1003.8 |
| 20260505094308 | 54 | 330 | 0.9 | 1.7 | 0.00 | 0.00 | 0.00 | 90 | 1003.8 |
| 20260505093803 | 53 | 330 | 0.9 | 1.7 | 0.00 | 0.00 | 0.00 | 90 | 1003.8 |
| 20260505093301 | 54 | 330 | 0.9 | 0.9 | 0.00 | 0.00 | 0.00 | 89 | 1003.6 |
| 20260505092757 | 54 | 330 | 0.9 | 1.7 | 0.00 | 0.00 | 0.00 | 89 | 1003.7 |
| 20260505092256 | 53 | 330 | 0.9 | 1.7 | 0.00 | 0.00 | 0.00 | 89 | 1003.9 |
| 20260505091753 | 54 | 330 | 0.0 | 0.0 | 0.00 | 0.00 | 0.00 | 88 | 1003.8 |
| 20260505091250 | 54 | 330 | 0.9 | 0.9 | 0.00 | 0.00 | 0.00 | 87 | 1003.6 |
| 20260505090748 | 55 | 330 | 0.9 | 0.9 | 0.00 | 0.00 | 0.00 | 87 | 1003.7 |
| 20260505090246 | 55 | 330 | 0.9 | 1.7 | 0.00 | 0.00 | 0.00 | 86 | 1003.7 |
| 20260505085743 | 55 | 330 | 1.7 | 1.7 | 0.00 | 0.00 | 0.00 | 86 | 1003.6 |
| 20260505085242 | 55 | 330 | 0.9 | 0.9 | 0.00 | 0.00 | 0.00 | 86 | 1003.7 |
| 20260505084738 | 55 | 330 | 0.9 | 0.9 | 0.00 | 0.00 | 0.00 | 86 | 1003.8 |
| 20260505084238 | 55 | 330 | 1.7 | 1.7 | 0.00 | 0.00 | 0.00 | 85 | 1003.5 |
| 20260505083734 | 55 | 330 | 1.7 | 1.7 | 0.00 | 0.00 | 0.00 | 86 | 1003.5 |
| 20260505083231 | 55 | 330 | 1.7 | 1.7 | 0.00 | 0.00 | 0.00 | 85 | 1003.7 |
| 20260505082727 | 55 | 330 | 1.7 | 1.7 | 0.00 | 0.00 | 0.00 | 85 | 1003.5 |
| 20260505082224 | 55 | 330 | 1.7 | 1.7 | 0.00 | 0.00 | 0.00 | 85 | 1003.6 |
| 20260505081720 | 55 | 330 | 0.9 | 0.9 | 0.00 | 0.00 | 0.00 | 84 | 1003.6 |
| 20260505081217 | 55 | 330 | 1.7 | 1.7 | 0.00 | 0.00 | 0.00 | 84 | 1003.6 |
| 20260505080714 | 55 | 330 | 0.9 | 1.7 | 0.00 | 0.00 | 0.00 | 84 | 1003.4 |
| 20260505080210 | 55 | 330 | 1.7 | 1.7 | 0.00 | 0.00 | 0.00 | 84 | 1003.5 |
| 20260505075706 | 55 | 330 | 1.7 | 1.7 | 0.00 | 0.00 | 0.00 | 84 | 1003.3 |
| 20260505075203 | 55 | 330 | 0.9 | 0.9 | 0.00 | 0.00 | 0.00 | 83 | 1003.7 |
| 20260505074700 | 55 | 330 | 0.9 | 1.7 | 0.00 | 0.00 | 0.00 | 82 | 1003.4 |
| 20260505074157 | 56 | 330 | 1.7 | 1.7 | 0.00 | 0.00 | 0.00 | 83 | 1003.2 |
| 20260505073654 | 55 | 330 | 0.9 | 0.9 | 0.00 | 0.00 | 0.00 | 83 | 1003.4 |
| 20260505073153 | 55 | 330 | 0.9 | 0.9 | 0.00 | 0.00 | 0.00 | 83 | 1003.4 |
| 20260505072648 | 56 | 330 | 0.9 | 1.7 | 0.00 | 0.00 | 0.00 | 82 | 1003.2 |
| 20260505072145 | 56 | 330 | 0.9 | 0.9 | 0.00 | 0.00 | 0.00 | 81 | 1003.3 |
| 20260505071640 | 56 | 330 | 0.9 | 1.7 | 0.00 | 0.00 | 0.00 | 82 | 1003.5 |
| 20260505071138 | 56 | 330 | 0.9 | 0.9 | 0.00 | 0.00 | 0.00 | 81 | 1003.4 |
| 20260505070635 | 56 | 330 | 0.9 | 0.9 | 0.00 | 0.00 | 0.00 | 81 | 1003.3 |
| 20260505070132 | 56 | 330 | 0.9 | 1.7 | 0.00 | 0.00 | 0.00 | 80 | 1003.4 |
| 20260505065628 | 57 | 330 | 2.6 | 2.6 | 0.00 | 0.00 | 0.00 | 79 | 1003.3 |
| 20260505065124 | 57 | 330 | 2.6 | 2.6 | 0.00 | 0.00 | 0.00 | 79 | 1003.5 |
| 20260505064621 | 57 | 330 | 0.9 | 1.7 | 0.00 | 0.00 | 0.00 | 79 | 1003.4 |
| 20260505064120 | 57 | 330 | 2.6 | 2.6 | 0.00 | 0.00 | 0.00 | 79 | 1003.2 |
| 20260505063617 | 57 | 330 | 2.6 | 2.6 | 0.00 | 0.00 | 0.00 | 78 | 1003.5 |
| 20260505063113 | 57 | 330 | 1.7 | 2.6 | 0.00 | 0.00 | 0.00 | 77 | 1003.6 |
| 20260505062609 | 58 | 330 | 1.7 | 1.7 | 0.00 | 0.00 | 0.00 | 77 | 1003.3 |
| 20260505062107 | 58 | 330 | 1.7 | 1.7 | 0.00 | 0.00 | 0.00 | 76 | 1003.4 |
| 20260505061604 | 58 | 331 | 1.7 | 2.6 | 0.00 | 0.00 | 0.00 | 75 | 1003.4 |
| 20260505061102 | 58 | 330 | 3.5 | 5.2 | 0.00 | 0.00 | 0.00 | 75 | 1003.5 |
| 20260505060559 | 59 | 330 | 3.5 | 4.3 | 0.00 | 0.00 | 0.00 | 75 | 1003.7 |
| 20260505060056 | 59 | 330 | 2.6 | 2.6 | 0.00 | 0.00 | 0.00 | 75 | 1003.6 |
| 20260505055551 | 59 | 330 | 2.6 | 2.6 | 0.00 | 0.00 | 0.00 | 74 | 1003.6 |
| 20260505055048 | 59 | 331 | 1.7 | 2.6 | 0.00 | 0.00 | 0.00 | 74 | 1003.6 |
| 20260505054545 | 59 | 331 | 0.9 | 0.9 | 0.00 | 0.00 | 0.00 | 74 | 1003.8 |
| 20260505054043 | 59 | 331 | 0.9 | 0.9 | 0.00 | 0.00 | 0.00 | 74 | 1003.8 |
| 20260505053540 | 59 | 330 | 0.9 | 0.9 | 0.00 | 0.00 | 0.00 | 74 | 1003.8 |
| 20260505053037 | 59 | 331 | 1.7 | 1.7 | 0.00 | 0.00 | 0.00 | 73 | 1003.9 |
| 20260505052533 | 59 | 331 | 0.9 | 0.9 | 0.00 | 0.00 | 0.00 | 73 | 1004.0 |
| 20260505052031 | 59 | 330 | 1.7 | 1.7 | 0.00 | 0.00 | 0.00 | 73 | 1003.7 |
| 20260505051528 | 59 | 330 | 0.9 | 1.7 | 0.00 | 0.00 | 0.00 | 73 | 1003.8 |
| 20260505051026 | 59 | 330 | 1.7 | 2.6 | 0.00 | 0.00 | 0.00 | 73 | 1003.9 |
| 20260505050524 | 59 | 330 | 1.7 | 1.7 | 0.00 | 0.00 | 0.00 | 72 | 1003.9 |
| 20260505041451 | 61 | 331 | 2.6 | 4.3 | 0.00 | 0.00 | 0.00 | 69 | 1004.0 |
| 20260505040949 | 61 | 330 | 3.5 | 4.3 | 0.00 | 0.00 | 0.00 | 69 | 1004.1 |
| 20260505040446 | 61 | 330 | 1.7 | 1.7 | 0.00 | 0.00 | 0.00 | 69 | 1003.9 |
| 20260505035943 | 61 | 330 | 1.7 | 1.7 | 0.00 | 0.00 | 0.00 | 69 | 1004.2 |
| 20260505035439 | 61 | 330 | 0.9 | 0.9 | 0.00 | 0.00 | 0.00 | 69 | 1004.0 |
| 20260505034936 | 61 | 330 | 0.9 | 1.7 | 0.00 | 0.00 | 0.00 | 68 | 1004.0 |
| 20260505034432 | 62 | 330 | 0.9 | 0.9 | 0.00 | 0.00 | 0.00 | 68 | 1004.0 |
| 20260505033930 | 62 | 330 | 1.7 | 1.7 | 0.00 | 0.00 | 0.00 | 68 | 1004.1 |
| 20260505033426 | 62 | 331 | 2.6 | 4.3 | 0.00 | 0.00 | 0.00 | 67 | 1004.0 |
| 20260505032925 | 62 | 331 | 2.6 | 2.6 | 0.00 | 0.00 | 0.00 | 67 | 1004.3 |
| 20260505032421 | 62 | 331 | 2.6 | 2.6 | 0.00 | 0.00 | 0.00 | 67 | 1004.0 |
| 20260505031918 | 63 | 331 | 2.6 | 2.6 | 0.00 | 0.00 | 0.00 | 66 | 1004.0 |
| 20260505031415 | 63 | 331 | 2.6 | 2.6 | 0.00 | 0.00 | 0.00 | 65 | 1004.5 |
| 20260505030912 | 63 | 331 | 0.9 | 0.9 | 0.00 | 0.00 | 0.00 | 66 | 1004.2 |
| 20260505030408 | 63 | 331 | 3.5 | 4.3 | 0.00 | 0.00 | 0.00 | 65 | 1004.0 |
| 20260505025903 | 64 | 331 | 2.6 | 2.6 | 0.00 | 0.00 | 0.00 | 64 | 1004.1 |
| 20260505025401 | 64 | 331 | 1.7 | 1.7 | 0.00 | 0.00 | 0.00 | 63 | 1004.1 |
| 20260505024900 | 64 | 331 | 2.6 | 2.6 | 0.00 | 0.00 | 0.00 | 63 | 1004.4 |
| 20260505024357 | 64 | 331 | 1.7 | 1.7 | 0.00 | 0.00 | 0.00 | 63 | 1004.1 |
| 20260505023854 | 64 | 331 | 2.6 | 2.6 | 0.00 | 0.00 | 0.00 | 62 | 1004.0 |
| 20260505023351 | 64 | 331 | 2.6 | 2.6 | 0.00 | 0.00 | 0.00 | 62 | 1004.0 |
| 20260505022848 | 64 | 331 | 3.5 | 5.2 | 0.00 | 0.00 | 0.00 | 61 | 1003.8 |
| 20260505022345 | 64 | 331 | 2.6 | 2.6 | 0.00 | 0.00 | 0.00 | 61 | 1003.9 |
| 20260505021842 | 64 | 331 | 2.6 | 4.3 | 0.00 | 0.00 | 0.00 | 61 | 1003.9 |
| 20260505021338 | 64 | 331 | 2.6 | 2.6 | 0.00 | 0.00 | 0.00 | 60 | 1004.0 |
| 20260505020834 | 64 | 331 | 2.6 | 5.2 | 0.00 | 0.00 | 0.00 | 60 | 1004.1 |
| 20260505020330 | 63 | 331 | 0.9 | 1.7 | 0.00 | 0.00 | 0.00 | 60 | 1003.9 |
| 20260505015827 | 64 | 331 | 0.9 | 1.7 | 0.00 | 0.00 | 0.00 | 60 | 1003.6 |
| 20260505015324 | 64 | 331 | 1.7 | 2.6 | 0.00 | 0.00 | 0.00 | 58 | 1003.9 |
| 20260505014821 | 63 | 330 | 2.6 | 2.6 | 0.00 | 0.00 | 0.00 | 59 | 1003.8 |
| 20260505014318 | 61 | 330 | 1.7 | 1.7 | 0.00 | 0.00 | 0.00 | 62 | 1003.5 |
| 20260505013815 | 60 | 330 | 0.0 | 0.0 | 0.00 | 0.00 | 0.00 | 63 | 1003.4 |
| 20260505013312 | 60 | 330 | 0.0 | 0.0 | 0.00 | 0.00 | 0.00 | 63 | 1003.2 |
| 20260505012811 | 61 | 330 | 0.0 | 0.0 | 0.00 | 0.00 | 0.00 | 62 | 1003.4 |
| 20260505012308 | 61 | 330 | 0.0 | 0.0 | 0.00 | 0.00 | 0.00 | 62 | 1003.0 |
| 20260505011803 | 61 | 330 | 0.0 | 0.0 | 0.00 | 0.00 | 0.00 | 61 | 1003.2 |
| 20260505011301 | 62 | 330 | 0.0 | 0.0 | 0.00 | 0.00 | 0.00 | 61 | 1003.1 |
| 20260505010757 | 62 | 330 | 0.0 | 0.0 | 0.00 | 0.00 | 0.00 | 59 | 1003.0 |
| 20260505010253 | 63 | 330 | 0.0 | 0.0 | 0.00 | 0.00 | 0.00 | 58 | 1002.9 |
| 20260505005749 | 64 | 330 | 0.0 | 0.0 | 0.00 | 0.00 | 0.00 | 56 | 1002.8 |
| 20260505005246 | 66 | 330 | 0.0 | 0.0 | 0.00 | 0.00 | 0.00 | 54 | 1002.9 |
| 20260505004743 | 67 | 330 | 0.0 | 0.0 | 0.00 | 0.00 | 0.00 | 50 | 1002.8 |
| 20260505004239 | 68 | 330 | 0.0 | 0.0 | 0.00 | 0.00 | 0.00 | 47 | 1002.8 |
| 20260505003737 | 67 | 330 | 0.0 | 0.0 | 0.00 | 0.00 | 0.00 | 49 | 1002.5 |
| 20260505003235 | 68 | 331 | 0.0 | 0.0 | 0.00 | 0.00 | 0.00 | 46 | 1002.5 |
| 20260505002731 | 69 | 331 | 0.9 | 0.9 | 0.00 | 0.00 | 0.00 | 45 | 1002.5 |
| 20260505002228 | 69 | 331 | 0.9 | 0.9 | 0.00 | 0.00 | 0.00 | 45 | 1002.5 |
| 20260505001725 | 69 | 331 | 0.0 | 0.0 | 0.00 | 0.00 | 0.00 | 45 | 1002.3 |
| 20260505001223 | 70 | 331 | 0.0 | 0.0 | 0.00 | 0.00 | 0.00 | 43 | 1002.6 |
| 20260505000720 | 70 | 331 | 0.9 | 0.9 | 0.00 | 0.00 | 0.00 | 42 | 1002.3 |
| 20260505000218 | 71 | 331 | 0.0 | 0.9 | 0.00 | 0.00 | 0.00 | 42 | 1002.2 |
| 20260504235714 | 71 | 331 | 0.9 | 0.9 | 0.00 | 0.00 | 0.00 | 41 | 1002.3 |
| 20260504235210 | 72 | 331 | 1.7 | 1.7 | 0.00 | 0.00 | 0.00 | 41 | 1002.3 |
| 20260504234708 | 72 | 331 | 0.9 | 0.9 | 0.00 | 0.00 | 0.00 | 40 | 1002.2 |
| 20260504234205 | 73 | 331 | 1.7 | 1.7 | 0.00 | 0.00 | 0.00 | 40 | 1001.8 |
| 20260504233700 | 73 | 331 | 2.6 | 2.6 | 0.00 | 0.00 | 0.00 | 39 | 1001.9 |
| 20260504233156 | 73 | 331 | 1.7 | 1.7 | 0.00 | 0.00 | 0.00 | 39 | 1002.0 |
| 20260504232654 | 74 | 331 | 1.7 | 1.7 | 0.00 | 0.00 | 0.00 | 39 | 1002.0 |
| 20260504232151 | 74 | 331 | 2.6 | 4.3 | 0.00 | 0.00 | 0.00 | 38 | 1002.1 |
| 20260504231648 | 74 | 331 | 2.6 | 2.6 | 0.00 | 0.00 | 0.00 | 37 | 1002.0 |
| 20260504231144 | 75 | 331 | 4.3 | 5.2 | 0.00 | 0.00 | 0.00 | 36 | 1001.8 |
| 20260504230640 | 75 | 331 | 2.6 | 2.6 | 0.00 | 0.00 | 0.00 | 35 | 1002.0 |
| 20260504230139 | 75 | 331 | 6.1 | 7.0 | 0.00 | 0.00 | 0.00 | 34 | 1002.1 |
| 20260504225637 | 76 | 331 | 3.5 | 6.1 | 0.00 | 0.00 | 0.00 | 34 | 1002.0 |
| 20260504225133 | 76 | 331 | 3.5 | 4.3 | 0.00 | 0.00 | 0.00 | 33 | 1002.1 |
| 20260504224630 | 77 | 331 | 4.3 | 6.1 | 0.00 | 0.00 | 0.00 | 33 | 1002.1 |
| 20260504224127 | 76 | 331 | 6.1 | 7.0 | 0.00 | 0.00 | 0.00 | 32 | 1002.2 |
| 20260504223624 | 76 | 331 | 4.3 | 7.0 | 0.00 | 0.00 | 0.00 | 33 | 1002.0 |
| 20260504223120 | 76 | 331 | 3.5 | 4.3 | 0.00 | 0.00 | 0.00 | 33 | 1002.3 |
| 20260504222617 | 77 | 331 | 4.3 | 5.2 | 0.00 | 0.00 | 0.00 | 32 | 1002.1 |
| 20260504222114 | 77 | 331 | 8.7 | 11.3 | 0.00 | 0.00 | 0.00 | 31 | 1002.0 |
| 20260504221611 | 78 | 331 | 3.5 | 4.3 | 0.00 | 0.00 | 0.00 | 30 | 1001.9 |
| 20260504221108 | 78 | 331 | 2.6 | 5.2 | 0.00 | 0.00 | 0.00 | 28 | 1002.0 |
| 20260504220604 | 79 | 331 | 5.2 | 6.1 | 0.00 | 0.00 | 0.00 | 28 | 1002.0 |
| 20260504215558 | 78 | 331 | 2.6 | 4.3 | 0.00 | 0.00 | 0.00 | 29 | 1001.9 |
| 20260504215055 | 78 | 331 | 3.5 | 5.2 | 0.00 | 0.00 | 0.00 | 29 | 1002.0 |
| 20260504214551 | 78 | 331 | 6.1 | 7.0 | 0.00 | 0.00 | 0.00 | 29 | 1002.1 |
| 20260504214048 | 78 | 331 | 3.5 | 4.3 | 0.00 | 0.00 | 0.00 | 28 | 1001.8 |
| 20260504213544 | 78 | 331 | 4.3 | 6.1 | 0.00 | 0.00 | 0.00 | 29 | 1001.9 |
| 20260504213041 | 79 | 331 | 7.0 | 8.7 | 0.00 | 0.00 | 0.00 | 28 | 1001.9 |
| 20260504212537 | 80 | 331 | 0.9 | 0.9 | 0.00 | 0.00 | 0.00 | 28 | 1002.0 |
| 20260504212035 | 81 | 332 | 2.6 | 6.1 | 0.00 | 0.00 | 0.00 | 28 | 1001.9 |
| 20260504211531 | 82 | 332 | 0.9 | 0.9 | 0.00 | 0.00 | 0.00 | 27 | 1001.9 |
| 20260504211028 | 82 | 332 | 3.5 | 5.2 | 0.00 | 0.00 | 0.00 | 25 | 1002.0 |
| 20260504210525 | 81 | 331 | 3.5 | 5.2 | 0.00 | 0.00 | 0.00 | 27 | 1002.0 |
| 20260504210022 | 82 | 332 | 2.6 | 5.2 | 0.00 | 0.00 | 0.00 | 27 | 1001.8 |
| 20260504205520 | 80 | 331 | 5.2 | 6.1 | 0.00 | 0.00 | 0.00 | 26 | 1002.1 |
| 20260504205018 | 81 | 332 | 3.5 | 4.3 | 0.00 | 0.00 | 0.00 | 27 | 1001.9 |
| 20260504204515 | 81 | 332 | 0.0 | 0.9 | 0.00 | 0.00 | 0.00 | 29 | 1002.0 |
| 20260504204014 | 80 | 331 | 4.3 | 5.2 | 0.00 | 0.00 | 0.00 | 27 | 1002.1 |
| 20260504203512 | 80 | 332 | 2.6 | 4.3 | 0.00 | 0.00 | 0.00 | 29 | 1002.2 |
| 20260504203009 | 80 | 332 | 1.7 | 2.6 | 0.00 | 0.00 | 0.00 | 26 | 1002.0 |
| 20260504202504 | 80 | 332 | 2.6 | 4.3 | 0.00 | 0.00 | 0.00 | 26 | 1002.1 |
| 20260504202001 | 81 | 332 | 7.8 | 9.6 | 0.00 | 0.00 | 0.00 | 28 | 1002.2 |
| 20260504201458 | 80 | 332 | 3.5 | 4.3 | 0.00 | 0.00 | 0.00 | 28 | 1002.3 |
| 20260504200956 | 81 | 331 | 4.3 | 7.8 | 0.00 | 0.00 | 0.00 | 27 | 1002.4 |
| 20260504200453 | 80 | 332 | 1.7 | 1.7 | 0.00 | 0.00 | 0.00 | 28 | 1002.4 |
| 20260504195949 | 82 | 332 | 4.3 | 6.1 | 0.00 | 0.00 | 0.00 | 27 | 1002.4 |
| 20260504195445 | 85 | 332 | 0.9 | 1.7 | 0.00 | 0.00 | 0.00 | 27 | 1002.4 |
| 20260504194942 | 84 | 332 | 1.7 | 1.7 | 0.00 | 0.00 | 0.00 | 25 | 1002.5 |
| 20260504194438 | 84 | 332 | 1.7 | 1.7 | 0.00 | 0.00 | 0.00 | 24 | 1002.6 |
| 20260504193934 | 83 | 332 | 2.6 | 4.3 | 0.00 | 0.00 | 0.00 | 25 | 1002.6 |
| 20260504193432 | 82 | 332 | 1.7 | 1.7 | 0.00 | 0.00 | 0.00 | 26 | 1003.1 |
| 20260504192930 | 81 | 331 | 5.2 | 7.0 | 0.00 | 0.00 | 0.00 | 26 | 1003.1 |
| 20260504192427 | 81 | 331 | 2.6 | 2.6 | 0.00 | 0.00 | 0.00 | 26 | 1003.0 |
| 20260504191926 | 81 | 331 | 1.7 | 1.7 | 0.00 | 0.00 | 0.00 | 25 | 1003.1 |
| 20260504191424 | 82 | 332 | 1.7 | 4.3 | 0.00 | 0.00 | 0.00 | 27 | 1003.5 |
| 20260504190919 | 83 | 332 | 0.9 | 0.9 | 0.00 | 0.00 | 0.00 | 28 | 1003.2 |
| 20260504190414 | 83 | 332 | 2.6 | 2.6 | 0.00 | 0.00 | 0.00 | 24 | 1003.5 |
| 20260504185911 | 81 | 332 | 1.7 | 2.6 | 0.00 | 0.00 | 0.00 | 25 | 1003.4 |
| 20260504185408 | 83 | 332 | 4.3 | 5.2 | 0.00 | 0.00 | 0.00 | 23 | 1003.4 |
| 20260504180109 | 79 | 332 | 0.0 | 0.9 | 0.00 | 0.00 | 0.00 | 30 | 1004.0 |
| 20260504175606 | 79 | 332 | 0.0 | 0.9 | 0.00 | 0.00 | 0.00 | 30 | 1004.0 |
| 20260504175103 | 78 | 331 | 0.0 | 0.9 | 0.00 | 0.00 | 0.00 | 31 | 1004.1 |
| 20260504174601 | 78 | 332 | 2.6 | 2.6 | 0.00 | 0.00 | 0.00 | 30 | 1004.2 |
| 20260504174057 | 77 | 331 | 1.7 | 1.7 | 0.00 | 0.00 | 0.00 | 31 | 1004.4 |
| 20260504173554 | 77 | 331 | 0.9 | 1.7 | 0.00 | 0.00 | 0.00 | 31 | 1004.1 |